User: anonymous   Login
Location: Unspecified
(0.0000°N, 0.0000°E)
Time: 07:28:48
(UTC+00:00)
Language:

MAST - Orbit

View from above orbital plane
View from above orbital plane
View from above satellite
View from above satellite

Ground track
Ground track

The orbit data is extracted from the following two-line orbital elements,

1 31126U 07012K   17148.84989708 +.00000134 +00000-0 +38931-4 0  9993
2 31126 098.0604 100.0213 0089074 237.6165 121.6391 14.56526386537012
Epoch (UTC): 28 May 2017 20:23:51
Eccentricity: 0.0089074
inclination: 98.0604°
perigee height: 641 km
apogee height: 767 km
right ascension of ascending node: 100.0213°
argument of perigee: 237.6165°
revolutions per day: 14.56526386
mean anomaly at epoch: 121.6391°
orbit number at epoch: 53701

The dashed part of the orbit path shows where the satellite is in the earth's shadow,  

DLR